Weather History for Lafayette, LA

Change the Weather History Date:

Thursday, April 28, 2011

  Actual Average Record
Temperature  
Mean Temperature 68 °F 72 °F  
Max Temperature 78 °F 82 °F 93 °F (1987)
Min Temperature 57 °F 62 °F 39 °F (1928)
Degree Days  
Heating Degree Days 0 0  
Month to date heating degree days 12 38  
Since 1 July heating degree days 1531 1418  
Cooling Degree Days 3 7  
Month to date cooling degree days 278 143  
Year to date cooling degree days 449 238  
Growing Degree Days 17 (Base 50)    
Moisture  
Dew Point 47 °F    
Average Humidity 57    
Maximum Humidity 84    
Minimum Humidity 29    
Precipitation  
Precipitation 0.00 in 0.15 in 3.46 in (1972)
Month to date precipitation 2.24 3.64  
Year to date precipitation 11.16 17.55  
Snow  
Snow 0.00 in 0.00 in 0.00 in ()
Month to date snowfall 0.0 0.0  
Since 1 July snowfall 0.0 T  
Snow Depth 0.00 in    
Sea Level Pressure  
Sea Level Pressure 30.09 in    
Wind  
Wind Speed 8 mph (North)    
Max Wind Speed 18 mph    
Max Gust Speed 23 mph    
Visibility 10 miles    
Events      
T = Trace of Precipitation, MM = Missing Value Source: NWS Daily Summary

Daily Weather History Graph

Daily Weather History Graph

Search for Another Location

Airport:

Trip Planner

Search our weather history database for the weather conditions in past years. The results will help you decide how hot, cold, wet, or windy it might be!

Date:

Astronomy

Apr. 28, 2011 Rise Set
Actual Time 6:27 AM CDT 7:43 PM CDT
Civil Twilight 6:02 AM CDT 8:08 PM CDT
Nautical Twilight 5:32 AM CDT 8:38 PM CDT
Astronomical Twilight 5:01 AM CDT 9:10 PM CDT
Moon 3:40 AM CDT (4/28) 3:57 PM CDT (4/28)
Length of Visible Light 14h 06m
Length of Day
13h 15m
Waning Crescent, 18% of the Moon is Illuminated
Apr 28
Waning Crescent
May 3
New
May 10
First Quarter
May 17
Full
May 24
Last Quarter

Hourly Weather History & Observations

Time (CDT) Temp. Dew Point Humidity Pressure Visibility Wind Dir Wind Speed Gust Speed Precip Events Conditions
12:53 AM 69.1 °F 50.0 °F 51% 29.98 in 10.0 mi North 12.7 mph - N/A   Clear
1:53 AM 66.9 °F 48.9 °F 52% 29.99 in 10.0 mi North 12.7 mph - N/A   Clear
2:53 AM 64.0 °F 48.9 °F 58% 30.01 in 10.0 mi North 9.2 mph - N/A   Clear
3:53 AM 62.1 °F 46.9 °F 58% 30.02 in 10.0 mi North 9.2 mph - N/A   Clear
4:53 AM 61.0 °F 46.9 °F 60% 30.04 in 10.0 mi North 8.1 mph - N/A   Clear
5:53 AM 57.9 °F 48.0 °F 70% 30.06 in 10.0 mi North 5.8 mph - N/A   Clear
6:53 AM 57.0 °F 48.0 °F 72% 30.09 in 10.0 mi NNE 4.6 mph - N/A   Clear
7:53 AM 61.0 °F 48.0 °F 62% 30.10 in 10.0 mi North 10.4 mph - N/A   Clear
8:53 AM 63.0 °F 43.0 °F 48% 30.12 in 10.0 mi NNE 15.0 mph - N/A   Clear
9:53 AM 66.0 °F 43.0 °F 43% 30.13 in 10.0 mi North 13.8 mph - N/A   Clear
10:53 AM 68.0 °F 44.6 °F 43% 30.14 in 10.0 mi NNE 11.5 mph 20.7 mph N/A   Clear
11:53 AM 71.1 °F 44.1 °F 38% 30.14 in 10.0 mi North 10.4 mph 19.6 mph N/A   Clear
12:53 PM 73.9 °F 43.0 °F 33% 30.14 in 10.0 mi NNW 12.7 mph - N/A   Clear
1:53 PM 75.0 °F 43.0 °F 32% 30.14 in 10.0 mi North 15.0 mph 21.9 mph N/A   Clear
2:53 PM 75.9 °F 44.1 °F 32% 30.12 in 10.0 mi North 12.7 mph - N/A   Clear
3:53 PM 77.0 °F 43.0 °F 30% 30.10 in 10.0 mi NNW 10.4 mph - N/A   Clear
4:53 PM 77.0 °F 44.1 °F 31% 30.09 in 10.0 mi North 8.1 mph - N/A   Clear
5:53 PM 77.0 °F 44.1 °F 31% 30.08 in 10.0 mi NE 10.4 mph - N/A   Clear
6:53 PM 75.0 °F 44.1 °F 33% 30.09 in 10.0 mi NNE 9.2 mph - N/A   Clear
7:53 PM 70.0 °F 48.0 °F 46% 30.09 in 10.0 mi NNE 3.5 mph - N/A   Clear
8:53 PM 64.0 °F 55.9 °F 75% 30.11 in 10.0 mi Calm Calm - N/A   Clear
9:53 PM 63.0 °F 55.0 °F 75% 30.12 in 10.0 mi Calm Calm - N/A   Clear
10:53 PM 61.0 °F 55.0 °F 81% 30.12 in 10.0 mi Calm Calm - N/A   Clear
11:53 PM 59.0 °F 53.1 °F 81% 30.11 in 10.0 mi Calm Calm - N/A   Clear